Theta_e
315 318 317 310 310 312 316 319 322 327 327 329 328 328 323 320 318 318 317 319 326 327 330 334 336 337 337 337 338 337 337 336 335 337 338 337 335 335 335 335 335 334 333 332
312 316 314 312 311 312 312 314 318 319 321 329 329 327 323 321 321 317 316 315 317 326 327 331 335 336 337 338 338 338 338 338 338 338 338 337 336 335 335 336 335 335 334 333
311 313 313 314 312 312 313 313 314 317 314 313 313 317 321 321 321 320 316 317 316 316 325 328 331 335 336 336 337 338 338 338 338 338 338 338 337 336 336 337 337 335 335 335
311 310 313 314 315 312 313 312 312 317 318 322 315 326 320 319 320 322 321 315 315 315 316 318 324 330 334 335 335 336 337 338 338 338 338 338 337 336 335 336 336 337 336 335
314 311 312 316 314 311 311 312 311 316 317 317 315 320 318 317 319 319 320 313 312 313 314 315 315 317 320 325 328 332 334 336 336 337 338 338 338 336 336 337 337 336 336 336
306 306 310 313 313 310 309 310 311 313 315 318 316 317 319 316 317 315 317 311 308 305 306 306 307 307 308 309 311 315 319 324 326 332 335 337 337 338 337 336 336 336 336 337
308 309 309 308 313 310 308 309 313 316 318 316 313 318 318 316 309 307 307 306 306 307 307 307 306 306 307 307 307 307 308 311 312 313 316 329 335 337 337 337 336 336 336 337
311 309 311 310 314 313 309 309 313 312 315 312 312 315 312 313 312 306 306 306 306 308 309 309 309 309 309 310 310 310 310 310 309 309 310 313 319 329 335 335 335 336 336 336
310 314 311 312 312 311 309 310 309 309 307 311 310 310 309 307 306 306 307 309 309 309 310 310 309 309 309 309 309 309 309 310 310 310 310 313 316 321 325 329 330 331 332 333
304 309 310 312 312 311 309 309 311 308 305 307 310 309 308 306 306 307 310 309 309 309 309 308 308 308 308 308 308 308 308 308 308 309 310 310 311 317 321 324 326 326 327 328
305 309 311 310 315 313 310 310 310 307 308 310 309 306 306 306 306 309 308 308 307 307 307 307 307 308 308 307 306 306 306 306 307 308 309 309 310 310 312 314 317 319 321 322
304 306 309 311 308 310 310 309 309 308 307 306 307 307 305 308 308 307 307 307 306 306 306 305 306 306 306 305 305 304 304 303 303 304 305 306 308 309 309 310 310 311 311 312
304 307 307 312 311 311 314 311 309 308 306 308 307 307 305 307 305 306 306 305 305 305 305 304 304 303 303 303 303 302 302 301 301 302 302 303 303 304 305 305 306 307 308 310
303 305 306 306 306 306 312 313 312 309 307 311 309 306 305 305 306 305 305 305 305 304 304 302 301 300 299 298 298 297 299 299 299 300 300 300 301 301 302 303 303 304 305 306
303 304 304 304 304 306 306 309 311 313 310 308 310 306 305 306 304 305 303 304 303 302 300 299 299 297 297 296 296 296 296 295 295 297 297 298 298 299 299 299 300 300 301 302
302 304 302 302 302 304 306 306 308 310 309 310 310 311 306 303 303 301 302 302 301 300 300 299 298 297 296 295 294 294 293 294 294 295 295 295 296 296 297 297 297 297 298 298
301 302 300 301 300 302 302 302 305 307 308 309 310 308 306 303 302 302 302 300 299 298 298 298 296 296 295 293 293 292 292 293 293 294 294 293 293 294 294 294 295 295 295 295
298 299 298 296 294 297 300 297 298 300 304 304 303 302 301 301 300 301 299 298 298 298 297 296 295 294 293 292 291 290 290 290 291 291 291 291 291 291 292 292 292 292 292 292
297 299 293 295 293 298 297 297 297 298 300 300 301 299 300 299 299 299 297 297 297 296 296 295 294 292 291 290 289 288 288 288 289 289 289 289 289 289 290 291 291 291 290 291
296 298 295 291 293 292 295 296 297 298 296 299 298 299 298 298 298 299 297 297 296 296 294 293 292 291 290 289 287 287 287 286 287 286 285 286 286 287 287 288 288 288 289 289
288 291 288 289 289 292 297 296 297 292 297 297 297 297 297 296 296 297 297 296 295 294 293 292 290 289 288 287 286 285 285 285 284 284 284 284 285 285 286 286 287 287 287 287
291 288 287 287 287 291 294 295 296 298 296 295 295 295 295 296 297 297 296 295 294 292 292 290 288 287 286 285 285 284 284 283 282 281 281 282 283 283 284 284 285 285 285 285
291 295 294 295 294 294 294 295 296 297 296 295 295 294 294 293 294 293 293 292 292 291 290 288 286 285 285 284 284 283 283 282 281 281 281 281 281 282 283 282 283 283 283 284
293 293 292 292 294 294 293 293 294 295 295 294 293 293 293 293 293 292 292 290 289 289 288 286 284 283 283 283 283 282 281 281 280 280 279 279 279 280 281 281 281 282 282 282
294 291 291 292 294 293 293 292 293 292 292 292 292 291 291 291 291 290 289 288 288 286 285 284 283 282 282 281 281 281 280 279 278 278 278 278 279 279 279 279 280 280 281 281
293 293 294 293 293 292 294 293 292 292 291 290 290 290 290 290 289 289 286 286 285 284 283 282 281 280 280 280 280 279 278 277 277 276 277 277 276 277 277 278 278 279 280 281
Wind_Speed
13 9 16 17 17 11 8 11 15 10 13 13 19 15 13 14 8 5 6 9 7 9 11 22 24 25 25 25 27 28 29 29 27 29 27 26 23 22 23 25 25 25 25 25
9 21 15 12 14 15 18 15 9 5 5 13 10 15 12 13 19 6 8 9 9 4 7 12 24 23 25 25 28 27 28 28 29 27 26 25 22 22 24 25 26 26 26 26
20 10 18 18 16 17 18 19 9 7 5 4 3 8 11 11 18 19 11 7 7 6 5 2 12 21 20 21 21 23 24 25 28 26 24 22 23 22 22 27 27 30 29 28
16 21 19 21 19 17 19 12 7 9 8 3 3 6 10 16 17 20 20 8 7 8 7 4 3 13 13 14 21 20 22 23 24 27 26 26 26 21 28 25 31 27 30 32
3 13 18 18 21 15 9 7 12 7 5 5 6 2 5 7 12 17 20 9 8 8 7 4 5 3 5 9 16 15 14 20 22 23 29 30 26 28 25 24 21 27 30 32
10 11 7 20 16 11 4 5 8 6 4 4 10 7 4 7 13 7 13 9 6 9 8 8 11 10 9 7 3 3 10 15 14 17 22 27 28 26 24 26 26 29 30 31
6 8 9 5 21 13 12 10 3 4 5 7 18 8 10 5 6 9 9 9 9 7 9 8 9 15 15 12 7 5 4 10 15 17 21 20 25 28 27 27 26 26 27 31
4 7 11 7 11 13 19 17 5 6 7 4 13 9 6 21 13 10 9 8 9 9 7 8 8 9 10 10 9 7 6 6 5 8 10 17 20 19 26 26 25 26 26 28
3 6 4 11 11 20 17 19 10 4 1 4 6 6 2 7 7 10 12 11 9 8 7 7 9 11 11 11 11 11 10 8 6 5 7 6 9 12 15 18 20 20 24 20
5 6 2 7 11 19 19 19 14 1 4 3 6 5 4 8 11 12 13 11 9 8 7 6 8 11 12 13 12 12 11 11 10 8 6 5 9 12 16 19 21 24 23 20
3 4 2 5 5 14 12 15 9 5 4 4 4 3 4 10 14 15 10 7 7 7 7 6 7 10 13 15 13 12 13 11 10 10 8 6 5 6 8 10 14 18 22 24
1 4 4 6 3 10 18 15 25 9 6 2 3 2 10 16 17 14 9 7 7 8 7 6 11 16 18 17 15 15 14 12 11 10 9 8 7 6 6 6 8 10 11 13
2 2 4 0 3 3 4 8 17 4 3 5 4 3 2 12 11 9 9 7 6 8 8 8 11 14 18 19 19 18 16 15 14 12 11 10 11 10 9 9 9 9 10 12
2 0 2 1 3 3 5 9 6 11 3 3 3 10 7 8 8 8 7 7 7 8 9 8 7 12 16 17 16 17 17 18 17 16 14 15 15 14 13 13 13 12 12 13
3 1 1 1 1 1 2 7 4 3 4 5 4 12 9 8 8 6 7 7 9 8 8 7 6 7 13 15 16 18 18 19 20 19 18 17 17 17 18 17 17 16 16 16
7 1 2 1 1 3 2 5 7 5 4 5 4 7 10 7 5 7 8 9 8 8 7 6 6 9 12 16 18 18 20 22 21 21 21 21 20 19 19 19 20 20 20 20
6 4 3 2 5 4 3 2 2 2 2 2 2 10 10 6 7 7 8 8 7 7 6 6 5 7 9 11 13 17 21 22 21 21 21 23 24 24 22 22 22 22 23 23
4 5 3 2 4 2 4 1 3 2 5 4 6 6 7 7 7 8 7 7 6 5 4 4 4 5 4 5 6 12 14 16 18 18 20 23 25 26 26 25 24 24 24 24
4 2 2 2 1 3 3 3 2 4 3 5 3 6 7 8 6 6 7 5 5 4 4 4 6 7 9 9 13 15 16 15 16 16 21 23 24 26 27 27 26 25 25 26
3 3 2 2 1 3 2 3 3 2 1 2 7 7 8 5 3 4 5 3 4 4 5 7 8 9 10 12 15 16 16 16 14 19 22 22 23 23 25 26 27 26 25 26
2 1 3 2 1 6 1 6 1 5 5 4 8 8 5 4 3 5 4 2 2 2 6 8 11 12 11 14 15 15 15 15 17 21 21 23 22 23 22 24 24 25 26 26
5 5 4 2 3 7 6 3 6 3 3 6 7 5 5 3 0 3 4 1 2 6 9 10 13 14 16 16 15 16 18 17 21 22 24 24 23 22 23 23 25 24 23 23
3 5 3 6 5 3 5 4 3 3 6 6 7 6 6 7 6 7 6 5 3 5 9 11 13 17 15 14 14 18 20 21 24 25 26 25 24 23 22 22 24 23 22 21
4 3 2 3 6 10 8 5 4 5 5 5 6 6 6 6 6 6 3 3 4 7 10 11 13 16 20 18 18 18 21 22 24 27 28 28 27 26 24 23 23 22 23 22
4 3 5 5 10 7 12 8 7 8 7 5 5 6 7 7 5 5 4 4 7 8 8 9 11 15 19 19 20 21 23 23 25 27 28 28 25 24 27 25 22 21 23 21
8 10 7 6 6 6 2 1 7 9 8 8 7 5 5 6 6 5 5 8 9 9 9 11 13 15 18 20 23 24 22 20 22 24 25 25 26 28 26 26 28 24 20 20
Wind_Direction
204 211 211 209 222 248 243 211 212 199 216 189 220 240 252 292 297 286 276 275 233 194 190 186 186 190 190 198 195 199 197 208 207 205 209 211 215 219 224 223 224 222 218 221
249 223 220 227 228 223 242 254 225 175 44 179 209 242 257 270 281 247 240 257 286 249 189 173 178 188 191 196 198 200 199 201 202 205 208 210 214 221 224 225 227 226 224 218
223 242 209 227 225 226 228 234 237 176 122 23 358 254 223 238 254 273 280 262 299 308 267 255 152 183 189 204 205 207 209 207 206 207 209 216 217 223 226 224 228 225 224 223
239 237 250 214 227 221 232 223 245 145 139 179 112 262 220 229 225 238 263 228 238 264 279 271 195 189 192 207 213 213 216 218 217 213 212 211 209 215 228 232 231 228 225 224
214 211 231 228 222 220 247 196 220 149 137 124 170 219 235 263 224 222 227 228 223 228 247 250 244 221 128 203 222 213 217 223 225 226 220 219 215 223 229 231 233 234 235 231
259 298 296 237 222 205 221 271 180 165 100 253 192 184 203 197 217 217 214 163 94 51 34 34 44 41 23 28 21 254 234 236 234 234 235 230 227 228 229 230 231 234 234 231
239 248 242 292 204 188 200 194 136 166 186 229 173 187 235 250 73 90 77 70 68 64 61 37 30 26 33 34 10 4 330 279 268 268 260 252 245 238 237 237 240 242 230 223
249 222 190 217 216 197 202 198 167 172 193 161 154 218 245 227 255 99 91 90 76 66 56 68 51 41 33 30 27 12 354 316 314 293 279 265 261 264 250 249 252 252 250 233
196 236 159 192 205 210 195 213 212 133 81 121 187 238 208 146 117 101 100 90 86 86 79 70 65 61 58 50 42 36 30 21 3 309 268 256 254 270 261 250 252 256 252 255
299 284 340 217 214 233 192 199 214 254 134 197 192 193 205 164 136 121 113 110 105 101 90 87 78 70 64 56 49 45 43 39 29 19 2 309 267 262 262 261 253 256 258 259
283 259 137 2 218 192 196 201 206 185 198 163 133 227 305 148 137 123 111 107 113 99 100 94 89 84 78 60 51 44 41 35 30 25 20 11 348 310 283 265 258 256 258 259
340 304 291 217 210 284 223 208 196 190 228 231 128 353 340 112 114 110 115 120 112 105 97 83 72 60 51 45 41 36 30 25 19 14 13 8 357 344 327 302 284 277 268 259
335 52 328 290 79 255 206 262 193 192 151 189 129 176 58 106 88 87 91 114 91 78 73 64 48 42 40 36 33 28 22 15 8 4 5 3 356 349 340 327 314 305 293 283
302 79 191 81 318 329 326 225 297 201 113 142 155 135 141 123 119 100 89 102 90 82 63 58 44 37 38 32 26 19 18 12 3 360 356 352 346 339 330 322 316 310 301 294
28 133 77 32 84 233 272 360 60 264 183 136 153 150 150 104 98 108 105 96 84 75 74 69 58 36 27 20 14 12 9 4 360 359 353 347 338 331 325 319 314 311 306 301
338 60 15 90 1 270 329 74 17 58 28 71 79 95 94 112 111 86 81 85 84 82 79 67 56 40 20 8 2 2 358 358 357 355 354 351 344 337 331 325 318 311 307 304
349 341 346 72 345 307 30 316 142 118 212 132 170 131 151 127 106 92 102 99 97 92 83 73 52 39 11 355 350 350 348 350 354 352 352 351 347 342 337 330 323 319 313 305
314 340 17 317 6 43 244 277 23 297 212 209 105 113 98 106 95 100 88 107 98 89 76 63 41 18 3 345 333 336 341 346 346 349 348 345 342 338 336 332 329 324 318 311
291 312 39 78 305 276 91 153 167 167 245 205 178 123 110 83 90 76 93 91 101 86 63 30 10 353 346 347 341 342 345 345 347 346 342 340 338 333 331 328 326 322 318 313
327 326 90 11 83 203 209 71 344 300 333 358 162 133 121 130 158 180 129 117 101 64 26 356 350 346 343 338 339 340 341 342 343 337 334 334 333 329 325 323 320 317 313 307
116 13 172 214 282 297 207 162 284 97 202 77 99 108 133 121 128 150 152 119 83 24 351 342 337 337 340 338 337 338 336 339 329 328 328 330 330 326 323 318 317 315 314 310
175 152 188 184 115 266 176 89 169 165 84 122 111 109 104 95 260 184 202 215 313 316 331 331 331 331 332 338 337 333 328 326 326 328 327 329 330 328 325 320 318 318 313 307
272 194 197 185 214 214 192 162 220 167 152 173 157 160 177 206 219 222 226 226 257 289 307 319 321 320 327 333 330 323 326 326 325 322 323 326 327 327 326 322 320 318 316 304
252 231 200 57 269 252 246 252 218 198 184 162 160 172 181 202 229 228 199 254 272 284 298 309 315 316 315 324 321 317 318 319 317 317 322 326 329 329 328 327 319 314 308 305
206 108 193 259 262 297 274 242 212 213 213 177 160 174 193 190 206 209 238 244 257 269 275 290 297 301 304 312 311 317 319 319 319 321 322 323 324 318 314 313 312 308 302 297
191 208 198 224 209 181 242 193 217 199 199 199 183 188 198 180 210 195 217 234 236 243 260 279 289 291 301 309 311 315 319 317 314 310 312 314 314 313 312 312 313 312 300 296